Zurück zum Katalog

STARLINK-5818

AktivKommunikationVLEO
NORAD 55785·PAYLOAD·🇺🇸 United States

Gestartet Mar 3, 2023 von Vandenberg Space Force Base

Loading…

Nächste Überflüge (nächste 24 Stunden)

TLE

AktuellSource: CelesTrak SupGP

Epoche: Sep 15, 2026, 02:42 UTC

1 55785C 23028AW  26258.11298611 -.00045957  00000+0 -38525-2 0  2581
2 55785  70.0001  87.0084 0002844 272.3017 177.4274 14.98342771    16

Verfolge STARLINK-5818 in Echtzeit mit AllMySat

Download on the App Store